Terminal Aerodrome Forecast
Issued by NWS Sterling, VA

Current Version | Previous Version | Graphics & Text | Print | Product List | Glossary On
Versions: 1 2 3 4 5 6 7 8 9 10 11 12 13 14 15 16 17 18 19 20 21 22 23 24 25 26 27 28
000
FTUS41 KLWX 251200 AAA
TAFDCA
TAF AMD
KDCA 251221Z 2512/2612 VRB05KT P6SM BKN050 OVC200
     FM251700 31005KT P6SM OVC040
     FM260200 04007KT P6SM OVC090
     FM260300 05007KT P6SM -SN OVC030
     FM260500 05007KT 3SM -SN OVC020
     FM260800 05011KT 2SM -SN OVC010=

USA.gov is the U.S. government's official web portal to all federal, state and local government web resources and services.